[[{"header":{"parameterUnit":"m.s-1","parameterCategory":1,"la1":30.2991,"la2":30.254,"lo1":-89.0895,"lo2":-89.0444,"dy":0.0017,"dx":0.0017,"nx":28,"ny":28,"refTime":"2025-04-08T09:00:00:Z","depth":0,"parameterNumber":2,"parameterNumberName":"U-component_of_WINDS"},"data":[0,0,0,0,0,0,0,0,0,0,0,0,0,0,0,0,0,0,0,0,0,0,0,0,0,0,0,0,0,0,0,0,0,0,0,0,0,0,0,0,0,0,0,0,0,0,0,0,0,0,0,0,0,0,0,0,0,0,2.4509,2.4509,0,2.4563,2.4563,2.4564,2.4511,2.4509,2.4507,2.4505,2.4558,2.4562,2.4565,0,0,0,0,0,0,0,0,0,0,0,0,0,2.4357,2.436,2.4509,2.4509,2.451,2.4563,2.4563,2.4564,2.4512,2.4509,2.4507,2.4504,2.4557,2.4561,2.4565,0,0,0,0,0,0,0,0,0,0,0,0,0,2.4418,2.4361,2.4509,2.449,2.4489,2.4562,2.4563,2.4564,2.4512,2.4509,2.4506,2.4503,2.4556,2.4561,2.4566,2.4659,0,0,2.4581,2.4583,0,0,0,0,0,0,0,0,2.4415,2.4424,2.4492,2.4492,2.4491,2.4527,2.4529,2.4596,2.4513,2.4503,2.4505,2.4502,2.455,2.4556,2.4573,2.4662,2.4664,2.4582,2.4585,2.4587,2.4588,0,0,0,0,0,0,0,2.4411,2.4421,2.453,2.4493,2.4492,2.4478,2.4484,2.4542,2.4544,2.4504,2.45,2.4508,2.4549,2.4568,2.4573,2.4665,2.4582,2.4586,2.4589,2.4591,2.4829,2.4832,0,0,0,0,0,0,2.4409,2.4418,2.4528,2.4532,2.4444,2.4484,2.4489,2.4519,2.4543,2.4544,2.451,2.4505,2.4561,2.4568,2.4575,2.4683,2.4587,2.4592,2.4594,2.4826,2.483,2.4833,0,0,0,0,0,0,2.4406,2.4419,2.4526,2.4474,2.4486,2.449,2.4523,2.4521,2.454,2.4548,2.4547,2.4529,2.4559,2.4568,2.4638,2.4684,2.4594,2.4598,2.4822,2.4827,2.4832,2.4901,0,0,0,0,0,0,2.4402,2.4418,2.4455,2.4475,2.4489,2.4589,2.4526,2.4525,2.4549,2.4542,2.4565,2.4566,2.4557,2.4631,2.4643,2.4689,2.4602,2.4818,2.4824,2.483,2.4894,2.4907,2.4919,0,0,0,0,0,2.4396,2.4472,2.4457,2.447,2.4535,2.4592,2.46,2.4589,2.4553,2.4588,2.4593,2.4565,2.4678,2.4638,2.4652,2.47,2.4815,2.4822,2.483,2.4889,2.4905,2.4918,0,0,0,0,0,0,2.4457,2.4475,2.4458,2.4543,2.4566,2.4583,2.4628,2.4607,2.4641,2.4633,2.4617,2.4623,2.4696,2.4706,2.4661,2.479,2.474,2.4751,2.478,2.4796,2.4808,2.4802,2.4607,0,0,0,0,0,2.4481,2.4526,2.4539,2.4613,2.4626,2.4625,2.4649,2.4639,2.4662,2.4671,2.4681,2.4704,2.4744,2.4771,2.4809,2.4896,2.4898,2.4936,2.4948,2.4958,2.4966,2.5009,2.5025,2.4858,2.4858,2.4858,0,0,2.4529,2.4545,2.4574,2.4625,2.4642,2.4688,2.4634,2.4685,2.4718,2.4679,2.4744,2.4753,2.4777,2.4855,2.489,2.4866,2.5013,2.4968,2.4976,2.4978,2.5019,2.5035,2.5049,2.4863,2.4862,2.4861,0,0,2.464,2.4658,2.472,2.4738,2.4764,2.4763,2.4778,2.4797,2.4801,2.4867,2.4837,2.4877,2.4947,2.4965,2.4983,2.5099,2.5073,2.5112,2.5174,2.5217,2.523,2.5241,2.5279,2.5293,2.5121,2.5121,2.5121,0,2.4697,2.4766,2.4754,2.4807,2.4829,2.4796,2.4857,2.4875,2.4912,2.4927,2.4899,2.4985,2.5,2.5079,2.5107,2.5125,2.5139,2.5108,2.5229,2.5241,2.5251,2.5287,2.5302,2.5125,2.5125,2.5124,2.5124,0,2.4832,2.488,2.4927,2.4963,2.499,2.5047,2.5042,2.5072,2.5059,2.506,2.5126,2.5142,2.5181,2.52,2.5188,2.5277,2.5261,2.5232,2.5181,2.5271,2.5304,2.5319,2.5131,2.513,2.5129,2.5128,0,0,2.4981,2.501,2.5027,2.5041,2.5067,2.5103,2.5158,2.5196,2.522,2.5247,2.529,2.535,2.5322,2.5343,2.5333,2.5371,2.5457,2.5336,2.5336,2.5355,2.5552,2.5571,2.5587,2.5441,2.5444,2.5446,2.5549,0,2.509,2.5185,2.5175,2.5264,2.5307,2.5276,2.5323,2.5343,2.5346,2.5381,2.5384,2.5425,2.5388,2.5399,2.5435,2.5439,2.5495,2.5432,2.5478,2.548,2.5469,2.5605,2.5626,2.5722,2.5562,2.5564,2.5566,0,2.5229,2.526,2.5353,2.537,2.5388,2.5431,2.5463,2.5498,2.552,2.5519,2.5542,2.5524,2.5577,2.5527,2.5598,2.5554,2.5573,2.5578,2.5581,2.5582,2.5526,2.5606,2.5753,2.5766,2.5587,2.5585,2.5584,0,2.5324,2.5389,2.5452,2.5466,2.5489,2.5519,2.553,2.5548,2.5571,2.56,2.5614,2.5649,2.5667,2.5693,2.5685,2.565,2.5756,2.5706,2.5754,2.5754,2.5775,2.5773,2.5922,2.5793,2.5793,2.5793,2.5793,0,2.5444,2.5501,2.5495,2.5533,2.5596,2.5584,2.5646,2.5653,2.5669,2.5707,2.5684,2.572,2.5708,2.5743,2.5738,2.5794,2.5804,2.5803,2.58,2.5803,2.5802,2.5812,2.5804,2.5797,2.5796,2.5795,2.5794,0,2.5558,2.5557,2.5623,2.5639,2.5644,2.5689,2.5702,2.5738,2.5739,2.5787,2.5797,2.5798,2.5838,2.5833,2.5878,2.5874,2.5943,2.5935,2.5936,2.5932,2.5978,2.5973,2.6137,2.6156,2.6018,2.6019,2.6021,0,2.5633,2.5676,2.5697,2.572,2.5733,2.5772,2.5795,2.5785,2.5809,2.5836,2.5868,2.5905,2.5934,2.5999,2.6003,2.6036,2.6025,2.608,2.603,2.603,2.6021,2.6017,2.602,2.6089,2.6091,2.6092,2.6093,0,2.5764,2.5761,2.5795,2.5829,2.5856,2.5882,2.5906,2.5926,2.5918,2.5947,2.5987,2.601,2.6055,2.6091,2.6122,2.6132,2.611,2.6109,2.6121,2.6123,2.612,2.6118,2.5959,2.6105,2.6104,2.6103,2.6102,2.6102,2.5859,2.5894,2.5913,2.5951,2.5968,2.599,2.6023,2.6028,2.6061,2.6097,2.6089,2.6134,2.6152,2.6192,2.6205,2.6238,2.6218,2.6236,2.624,2.6244,2.6247,2.6118,2.6244,2.6244,2.6244,2.6243,2.6243,0,2.5985,2.5996,2.6031,2.6064,2.6093,2.6073,2.6097,2.6122,2.6162,2.6181,2.621,2.6255,2.629,2.6297,2.6329,2.6355,2.6345,2.6363,2.6359,2.6361,2.6266,2.625,2.637,2.637,2.637,2.637,2.637,2.637,2.6054,2.6112,2.6111,2.6176,2.6186,2.623,2.6245,2.6264,2.6279,2.6331,2.636,2.6364,2.6378,2.6411,2.6441,2.6442,2.6454,2.6475,2.6471,2.6381,2.6368,2.6356,2.6341,2.6478,2.6478,2.6563,2.6564,2.6565]},{"header":{"parameterUnit":"m.s-1","parameterCategory":1,"la1":30.2991,"la2":30.254,"lo1":-89.0895,"lo2":-89.0444,"dy":0.0017,"dx":0.0017,"nx":28,"ny":28,"refTime":"2025-04-08T09:00:00:Z","depth":0,"parameterNumber":3,"parameterNumberName":"V-component_of_WINDS"},"data":[0,0,0,0,0,0,0,0,0,0,0,0,0,0,0,0,0,0,0,0,0,0,0,0,0,0,0,0,0,0,0,0,0,0,0,0,0,0,0,0,0,0,0,0,0,0,0,0,0,0,0,0,0,0,0,0,0,0,4.0219,4.0219,0,4.0267,4.0268,4.0268,4.0209,4.0206,4.0204,4.0202,4.0248,4.0252,4.0255,0,0,0,0,0,0,0,0,0,0,0,0,0,4.007,4.0073,4.0219,4.0219,4.022,4.0267,4.0268,4.0268,4.0209,4.0206,4.0204,4.0201,4.0247,4.0251,4.0255,0,0,0,0,0,0,0,0,0,0,0,0,0,4.0128,4.0074,4.0219,4.0196,4.0195,4.0267,4.0268,4.0268,4.021,4.0206,4.0203,4.02,4.0246,4.0251,4.0256,4.0351,0,0,4.0271,4.0273,0,0,0,0,0,0,0,0,4.0125,4.0134,4.0199,4.0198,4.0196,4.0229,4.0232,4.0296,4.021,4.0204,4.0202,4.0198,4.0244,4.0249,4.0265,4.0353,4.0355,4.0271,4.0274,4.0276,4.0277,0,0,0,0,0,0,0,4.0121,4.0131,4.0238,4.02,4.0198,4.0182,4.0187,4.0244,4.0242,4.0204,4.02,4.0207,4.0243,4.0261,4.0266,4.0356,4.0271,4.0275,4.0278,4.028,4.0522,4.0525,0,0,0,0,0,0,4.012,4.0128,4.0236,4.0239,4.0152,4.0187,4.0192,4.0221,4.0241,4.0241,4.0209,4.0204,4.0254,4.026,4.0267,4.0378,4.0276,4.0281,4.0283,4.0518,4.0522,4.0526,0,0,0,0,0,0,4.0117,4.0131,4.0234,4.0183,4.0195,4.0193,4.0226,4.0224,4.0242,4.0245,4.0244,4.0228,4.0252,4.026,4.033,4.0379,4.0283,4.0287,4.0514,4.0519,4.0524,4.0603,0,0,0,0,0,0,4.0113,4.013,4.0168,4.0184,4.0198,4.0298,4.0229,4.0227,4.0251,4.0244,4.0262,4.0262,4.025,4.0323,4.0335,4.0384,4.0291,4.051,4.0516,4.0523,4.0596,4.061,4.0622,0,0,0,0,0,4.0108,4.0188,4.017,4.0183,4.0245,4.0301,4.0309,4.0294,4.0255,4.0292,4.0293,4.0262,4.0372,4.0331,4.0344,4.0395,4.0506,4.0515,4.0522,4.059,4.0607,4.0622,0,0,0,0,0,0,4.0177,4.019,4.017,4.0258,4.0279,4.0291,4.0338,4.0313,4.0345,4.0337,4.0316,4.0321,4.0395,4.0402,4.0356,4.0487,4.0433,4.0443,4.048,4.0496,4.0509,4.0505,4.0295,0,0,0,0,0,4.0202,4.0248,4.0256,4.0333,4.0344,4.0339,4.0363,4.035,4.037,4.0379,4.0386,4.0406,4.0445,4.0471,4.0507,4.0596,4.0598,4.0638,4.0651,4.0662,4.0671,4.0716,4.0733,4.0552,4.0552,4.0552,0,0,4.0255,4.0268,4.0298,4.0347,4.0362,4.0408,4.0347,4.0399,4.0433,4.0386,4.0453,4.0458,4.0479,4.0559,4.0594,4.0567,4.0721,4.0672,4.068,4.0684,4.0726,4.0743,4.0758,4.0557,4.0556,4.0555,0,0,4.0374,4.039,4.0454,4.0469,4.0493,4.0488,4.0504,4.052,4.0521,4.0588,4.0553,4.0592,4.066,4.0676,4.0693,4.0815,4.0786,4.0828,4.0896,4.094,4.0955,4.0967,4.1009,4.1024,4.0837,4.0837,4.0837,0,4.0437,4.0506,4.0489,4.0543,4.0564,4.0525,4.0588,4.0604,4.0638,4.0652,4.0622,4.0705,4.0717,4.0798,4.0827,4.0843,4.0858,4.0825,4.0954,4.0967,4.0978,4.1017,4.1033,4.0842,4.0841,4.0841,4.084,0,4.058,4.0629,4.0677,4.0711,4.0738,4.0796,4.0786,4.0815,4.0798,4.0796,4.0863,4.0875,4.0912,4.093,4.0915,4.1009,4.0991,4.0958,4.0903,4.1,4.1037,4.1052,4.0849,4.0847,4.0846,4.0844,0,0,4.0745,4.0767,4.0785,4.0799,4.0821,4.0857,4.0912,4.0949,4.0973,4.0997,4.1041,4.1099,4.1067,4.1087,4.1072,4.1111,4.1204,4.1073,4.1073,4.1095,4.1306,4.133,4.1348,4.1186,4.1189,4.1191,4.1304,0,4.0863,4.096,4.0945,4.1038,4.1081,4.1043,4.109,4.1108,4.1107,4.1142,4.114,4.1181,4.1138,4.1149,4.1186,4.1186,4.1246,4.1177,4.1225,4.1227,4.122,4.1367,4.1393,4.1499,4.1318,4.132,4.1322,0,4.1014,4.1044,4.1141,4.1153,4.117,4.1214,4.1244,4.1279,4.1297,4.1294,4.1314,4.1292,4.1345,4.1289,4.1361,4.1314,4.1332,4.1335,4.1339,4.1341,4.128,4.1373,4.1533,4.1548,4.1345,4.1343,4.1341,0,4.1122,4.1186,4.1251,4.1264,4.1281,4.1312,4.132,4.1335,4.1357,4.1383,4.1397,4.1429,4.1447,4.1471,4.1457,4.1419,4.153,4.1474,4.1527,4.1528,4.1552,4.155,4.1716,4.1566,4.1566,4.1566,4.1565,0,4.1255,4.1315,4.13,4.134,4.1406,4.1387,4.1452,4.1455,4.1468,4.1507,4.1476,4.1512,4.1492,4.1527,4.1517,4.1576,4.1584,4.1581,4.1578,4.1584,4.1584,4.1595,4.1586,4.157,4.1569,4.1568,4.1567,0,4.1387,4.1379,4.1448,4.1457,4.1461,4.1509,4.1516,4.1553,4.1549,4.1598,4.1608,4.1602,4.1641,4.163,4.1672,4.1665,4.1739,4.1727,4.1734,4.173,4.1783,4.1777,4.196,4.1982,4.182,4.1821,4.1823,0,4.1471,4.1517,4.1531,4.1555,4.1565,4.1604,4.1626,4.1609,4.1632,4.1655,4.1688,4.1724,4.1752,4.1816,4.1814,4.1846,4.1833,4.1894,4.1837,4.1841,4.1831,4.1828,4.1832,4.1906,4.1907,4.1909,4.191,0,4.1622,4.1615,4.1648,4.168,4.1707,4.1731,4.1751,4.1772,4.1756,4.1784,4.1823,4.1845,4.1887,4.1923,4.1951,4.1958,4.1931,4.1928,4.1942,4.1948,4.1949,4.1947,4.1763,4.1924,4.1923,4.1922,4.1921,4.192,4.1731,4.1769,4.1784,4.1821,4.1835,4.1854,4.1888,4.1888,4.1921,4.1954,4.1942,4.1986,4.2,4.2035,4.2046,4.2079,4.2056,4.2076,4.2081,4.2085,4.2091,4.1945,4.2085,4.2084,4.2084,4.2083,4.2083,0,4.1878,4.1885,4.192,4.1949,4.1978,4.1951,4.1972,4.1997,4.2037,4.2053,4.208,4.2124,4.2158,4.2159,4.219,4.2216,4.2205,4.2225,4.2222,4.2224,4.2112,4.2096,4.2234,4.2234,4.2234,4.2234,4.2234,4.2234,4.1958,4.2019,4.2014,4.208,4.2087,4.213,4.2144,4.2161,4.2173,4.2224,4.2252,4.2252,4.2261,4.2292,4.2321,4.232,4.2332,4.2357,4.2352,4.2247,4.2232,4.2218,4.2203,4.2361,4.2361,4.246,4.2461,4.2462]}]]